Weather History for Poplar Bluff, MO

Change the Weather History Date:

Friday, February 22, 2013

  Actual Average Record
Temperature  
Mean Temperature 38 °F -  
Max Temperature 43 °F 53 °F 73 °F (1944)
Min Temperature 30 °F 31 °F 6 °F (1963)
Degree Days  
Heating Degree Days 28    
Moisture  
Dew Point 31 °F    
Average Humidity 84    
Maximum Humidity 93    
Minimum Humidity 62    
Precipitation  
Precipitation 0.00 in - - ()
Sea Level Pressure  
Sea Level Pressure 29.99 in    
Wind  
Wind Speed 7 mph (SW)    
Max Wind Speed 15 mph    
Max Gust Speed 20 mph    
Visibility 6 miles    
Events Fog    
Averages and records for this station are not official NWS values.
T = Trace of Precipitation, MM = Missing Value Source: NWS Daily Summary

Daily Weather History Graph

Daily Weather History Graph

Search for Another Location

Airport:

Trip Planner

Search our weather history database for the weather conditions in past years. The results will help you decide how hot, cold, wet, or windy it might be!

Date:

Astronomy

Feb. 22, 2013 Rise Set
Actual Time 6:40 AM CST 5:49 PM CST
Civil Twilight 6:14 AM CST 6:15 PM CST
Nautical Twilight 5:44 AM CST 6:45 PM CST
Astronomical Twilight 5:14 AM CST 7:15 PM CST
Moon 3:03 PM CST (2/22) 4:22 AM CST (2/22)
Length of Visible Light 12h 00m
Length of Day
11h 08m
Waxing Gibbous, 90% of the Moon is Illuminated
Feb 22
Waxing Gibbous
Feb 25
Full
Mar 4
Last Quarter
Mar 11
New
Mar 19
First Quarter

Hourly Weather History & Observations

Time (CST) Temp. Windchill Dew Point Humidity Pressure Visibility Wind Dir Wind Speed Gust Speed Precip Events Conditions
12:06 AM 33.8 °F - 32.0 °F 93% 29.83 in 2.5 mi Calm Calm - N/A   Overcast
12:53 AM 34.0 °F 31.0 °F 32.0 °F 92% 29.87 in 2.0 mi WSW 3.5 mph - N/A   Overcast
1:05 AM 33.8 °F 30.8 °F 32.0 °F 93% 29.84 in 1.0 mi WSW 3.5 mph - N/A   Overcast
1:15 AM 33.8 °F 28.6 °F 32.0 °F 93% 29.85 in 0.5 mi SW 5.8 mph - N/A Fog Fog
1:27 AM 33.8 °F 27.7 °F 32.0 °F 93% 29.85 in 0.2 mi SW 6.9 mph - N/A Fog Fog
1:53 AM 34.0 °F 29.8 °F 32.0 °F 92% 29.88 in 0.2 mi SW 4.6 mph - N/A Fog Fog
2:22 AM 33.8 °F 27.0 °F 32.0 °F 93% 29.87 in 0.5 mi SW 8.1 mph - N/A Fog Fog
2:32 AM 33.8 °F 28.6 °F 32.0 °F 93% 29.88 in 0.2 mi WSW 5.8 mph - N/A Fog Fog
2:41 AM 33.8 °F 27.7 °F 32.0 °F 93% 29.88 in 0.5 mi WSW 6.9 mph - N/A Fog Fog
2:53 AM 34.0 °F 28.0 °F 32.0 °F 92% 29.90 in 0.5 mi West 6.9 mph - N/A Fog Fog
3:10 AM 33.8 °F 27.0 °F 32.0 °F 93% 29.89 in 1.2 mi SW 8.1 mph - N/A   Overcast
3:23 AM 33.8 °F 28.6 °F 32.0 °F 93% 29.89 in 2.5 mi SW 5.8 mph - N/A   Overcast
3:53 AM 34.0 °F 28.8 °F 32.0 °F 92% 29.91 in 1.8 mi South 5.8 mph - N/A   Overcast
4:19 AM 33.8 °F 26.4 °F 32.0 °F 93% 29.90 in 2.5 mi SSW 9.2 mph - N/A   Overcast
4:30 AM 33.8 °F 27.0 °F 32.0 °F 93% 29.91 in 3.0 mi SSW 8.1 mph - N/A   Overcast
4:40 AM 33.8 °F 25.8 °F 32.0 °F 93% 29.92 in 2.5 mi SSW 10.4 mph - N/A   Overcast
4:53 AM 34.0 °F 26.6 °F 32.0 °F 92% 29.94 in 2.5 mi South 9.2 mph - N/A   Overcast
5:01 AM 33.8 °F 26.4 °F 32.0 °F 93% 29.92 in 3.0 mi SSW 9.2 mph - N/A   Overcast
5:15 AM 33.8 °F 26.4 °F 32.0 °F 93% 29.93 in 2.5 mi SSW 9.2 mph - N/A   Overcast
5:27 AM 33.8 °F 26.4 °F 32.0 °F 93% 29.93 in 3.0 mi SSW 9.2 mph - N/A   Overcast
5:34 AM 33.8 °F 27.7 °F 32.0 °F 93% 29.94 in 1.8 mi South 6.9 mph - N/A   Overcast
5:53 AM 34.0 °F 27.2 °F 32.0 °F 92% 29.96 in 1.8 mi SSW 8.1 mph - N/A   Overcast
6:16 AM 33.8 °F 27.7 °F 32.0 °F 93% 29.94 in 3.0 mi SW 6.9 mph - N/A   Overcast
6:53 AM 34.0 °F 27.2 °F 32.0 °F 92% 29.97 in 4.0 mi SW 8.1 mph - N/A   Overcast
7:16 AM 33.8 °F 27.0 °F 32.0 °F 93% 29.97 in 7.0 mi SW 8.1 mph - N/A   Overcast
7:53 AM 34.0 °F 27.2 °F 32.0 °F 92% 30.01 in 7.0 mi SSW 8.1 mph - N/A   Overcast
8:14 AM 33.8 °F 26.4 °F 32.0 °F 93% 29.99 in 6.0 mi South 9.2 mph - N/A   Overcast
8:53 AM 35.1 °F 28.6 °F 33.1 °F 92% 30.01 in 7.0 mi SSW 8.1 mph - N/A   Mostly Cloudy
9:13 AM 35.6 °F 28.6 °F 33.8 °F 93% 30.00 in 8.0 mi SSW 9.2 mph - N/A   Partly Cloudy
9:20 AM 35.6 °F 28.6 °F 33.8 °F 93% 30.00 in 9.0 mi SSW 9.2 mph - N/A   Scattered Clouds
9:50 AM 37.4 °F 28.9 °F 33.8 °F 87% 30.02 in 8.0 mi SW 13.8 mph - N/A   Mostly Cloudy
9:53 AM 37.0 °F 29.8 °F 34.0 °F 89% 30.04 in 8.0 mi SW 10.4 mph - N/A   Mostly Cloudy
10:09 AM 37.4 °F 29.8 °F 33.8 °F 87% 30.02 in 10.0 mi SW 11.5 mph - N/A   Mostly Cloudy
10:53 AM 37.0 °F 28.5 °F 33.1 °F 86% 30.06 in 10.0 mi SW 13.8 mph - N/A   Overcast
11:15 AM 39.2 °F 33.0 °F 35.6 °F 87% 30.04 in 10.0 mi SW 9.2 mph - N/A   Overcast
11:44 AM 39.2 °F 31.2 °F 33.8 °F 81% 30.03 in 10.0 mi SW 13.8 mph - N/A   Mostly Cloudy
11:53 AM 39.9 °F 31.8 °F 33.1 °F 77% 30.05 in 10.0 mi WSW 15.0 mph - N/A   Mostly Cloudy
12:02 PM 42.8 °F 35.8 °F 33.8 °F 70% 30.03 in 10.0 mi WSW 13.8 mph - N/A   Scattered Clouds
12:45 PM 42.8 °F 36.2 °F 33.8 °F 70% 30.02 in 10.0 mi SW 12.7 mph - N/A   Mostly Cloudy
12:53 PM 43.0 °F 36.8 °F 32.0 °F 65% 30.03 in 10.0 mi West 11.5 mph - N/A   Mostly Cloudy
1:22 PM 42.8 °F 35.8 °F 33.8 °F 70% 30.01 in 10.0 mi WSW 13.8 mph - N/A   Scattered Clouds
1:44 PM 42.8 °F 36.6 °F 32.0 °F 66% 30.01 in 10.0 mi West 11.5 mph 19.6 mph N/A   Mostly Cloudy
1:53 PM 42.1 °F 34.9 °F 32.0 °F 67% 30.03 in 10.0 mi West 13.8 mph - N/A   Mostly Cloudy
2:09 PM 42.8 °F 36.6 °F 32.0 °F 66% 30.01 in 10.0 mi West 11.5 mph - N/A   Scattered Clouds
2:53 PM 43.0 °F 36.8 °F 30.9 °F 62% 30.02 in 10.0 mi West 11.5 mph - N/A   Scattered Clouds
3:53 PM 41.0 °F 34.3 °F 30.0 °F 65% 30.02 in 10.0 mi WNW 11.5 mph - N/A   Partly Cloudy
4:53 PM 39.0 °F 33.4 °F 28.9 °F 67% 30.04 in 10.0 mi WNW 8.1 mph - N/A   Partly Cloudy
5:16 PM 37.4 °F 29.8 °F 28.4 °F 70% 30.03 in 10.0 mi WNW 11.5 mph - N/A   Mostly Cloudy
5:28 PM 37.4 °F 30.8 °F 26.6 °F 65% 30.03 in 10.0 mi NW 9.2 mph - N/A   Scattered Clouds
5:53 PM 36.0 °F 29.0 °F 27.0 °F 70% 30.06 in 10.0 mi NW 9.2 mph - N/A   Partly Cloudy
6:34 PM 35.6 °F 31.7 °F 26.6 °F 70% 30.06 in 10.0 mi West 4.6 mph - N/A   Mostly Cloudy
6:53 PM 35.1 °F 32.2 °F 26.1 °F 70% 30.08 in 10.0 mi West 3.5 mph - N/A   Mostly Cloudy
7:05 PM 35.6 °F - 26.6 °F 70% 30.07 in 10.0 mi Calm Calm - N/A   Scattered Clouds
7:53 PM 34.0 °F - 27.0 °F 75% 30.09 in 10.0 mi Calm Calm - N/A   Clear
8:53 PM 33.1 °F - 27.0 °F 78% 30.11 in 10.0 mi Calm Calm - N/A   Clear
9:27 PM 33.8 °F - 26.6 °F 75% 30.10 in 10.0 mi Calm Calm - N/A   Mostly Cloudy
9:35 PM 32.0 °F - 28.4 °F 87% 30.10 in 10.0 mi Calm Calm - N/A   Scattered Clouds
9:53 PM 32.0 °F 28.7 °F 28.0 °F 85% 30.11 in 10.0 mi WNW 3.5 mph - N/A   Clear
10:53 PM 32.0 °F 27.5 °F 27.0 °F 82% 30.11 in 10.0 mi NW 4.6 mph - N/A   Clear
11:53 PM 30.9 °F - 27.0 °F 85% 30.10 in 10.0 mi Calm Calm - N/A   Clear